Tracking 20475 objects as of 27-Feb-2020
HD Live streaming from Space Station
objects crossing your sky now

ARIANE 3 DEB

Track ARIANE 3 DEB now!


NORAD ID: 20674
Int'l Code: 1984-081E
Perigee: 720.6 km
Apogee: 33,589.4 km
Inclination: 6.7 °
Period: 598.5 minutes
Semi major axis: 23525 km
RCS: 2.5198 m2 (large)
Launch date: August 4, 1984
Source: France (FR)
Launch site: FRENCH GUIANA (FRGUI)

Note: This is SATELLITE DEBRIS
aabbcc
Your satellite tracking list
Your tracking list is empty




NASA's NSSDC Master Catalog

Two Line Element Set (TLE):
1 20674U 84081E   20058.22096538  .00000019  00000-0  17416-2 0  9991
2 20674   6.6625 222.6486 6985650 242.2014  57.0501  2.40591887242033
Source of the keplerian elements: AFSPC